Location: *
(49.3500°N, 12.6000°E)
Time: 20:43:46
(UTC+00:00)

SPOT 3 Rocket - Pass Details

Date: 18 October 2019
Orbit: 779 x 794 km, 98.8° (Epoch: 22 November)

Event Time Altitude Azimuth Distance (km) Brightness Sun altitude
Exits shadow 18:17:55 44° 96° (E) 1,080 3.8 -20.8°
Maximum altitude 18:18:44 48° 67° (ENE) 1,022 3.8 -21.0°
Drops below altitude 10° 18:23:45 10° 354° (N) 2,369 6.2 -21.8°
Sets 18:26:08 0° 350° (N) 3,304 7.1 -22.2°
